{"data":{"norad_id":64080,"epoch":"2026-09-20T03:43:31.891008Z","epoch_age_seconds":173307,"freshness":"STALE","line1":"1 64080U 25107S   26263.15523022  .00008851  00000+0  33069-3 0  9997","line2":"2 64080  42.9997 183.1168 0001070 269.1655  90.9074 15.27588536 75865","mean_motion":15.27588536,"eccentricity":0.000107,"inclination_deg":42.9997,"raan_deg":183.1168,"arg_perigee_deg":269.1655,"mean_anomaly_deg":90.9074,"bstar":0.00033069,"rev_number":7586,"period_min":94.266221961226,"perigee_km":482.28939212648,"apogee_km":483.75768048125,"semimajor_km":6861.1605363039,"source":"CELESTRAK","updated_at":"2026-09-21T09:00:35.195085Z"}}